Weather Roundup
Issued by NWS

Home | Current Version | Previous Version | Text Only | Print | Product List | Glossary On
Versions: 1 2 3 4 5 6 7 8 9 10 11 12 13 14 15 16 17 18 19 20 21 22 23 24 25 26 27 28 29 30 31 32 33 34 35 36 37 38 39 40 41 42 43 44 45 46 47 48 49 50
032
NZUS93 KARX 231510
HRRWXR

CURRENT HOURLY OBSERVATIONS ACROSS
MUCH OF THE UPPER MISSISSIPPI VALLEY
NATIONAL WEATHER SERVICE LA CROSSE WI
900 AM CST FRI FEB 23 2018


...SOUTHEAST MINNESOTA...


CITY           SKY/WX    TMP DP  RH WIND       PRES   REMARKS
ROCHESTER      CLOUDY    26  23  88 W18       30.11R WCI  13
ROCHESTER/MAYO CLOUDY    28  25  89 W15G23    30.12R WCI  16
WINONA         CLOUDY    32  28  86 W10G18    30.10R WCI  24
AUSTIN         CLOUDY    25  21  86 W10G16    30.14R WCI  15
ALBERT LEA     CLOUDY    21  19  93 CALM      30.16R
DODGE CENTER   CLOUDY    25  21  86 W10       30.11R WCI  15
PRESTON        PTSUNNY   27  24  87 W9        30.12R WCI  18
OWATONNA       PTSUNNY   25  21  86 W13       30.13R WCI  13
FARIBAULT      PTSUNNY   25  21  86 W12       30.14R WCI  14
$$

...ELSEWHERE IN MINNESOTA...


CITY           SKY/WX    TMP DP  RH WIND       PRES   REMARKS
MINNEAPOLIS    CLOUDY    26  24  92 NW13      30.11R WCI  15
INTNL FALLS    LGT SNOW  20  17  88 N5        30.06S VSB 1   WCI  13
DULUTH         LGT SNOW  25  22  88 NW5       29.98S FOG     WCI  19
RED WING       CLOUDY    30  25  80 W10       30.11R WCI  21
REDWOOD FALLS  MOSUNNY   15  13  91 W13       30.17R FOG     WCI   1
MANKATO        CLOUDY    21  18  88 W13       30.16R FOG     WCI   9
WORTHINGTON    CLOUDY    20  17  88 NW14      30.17R WCI   7
FAIRMONT       FLURRIES  20  16  84 W16       30.18R WCI   6
$$

...SOUTHWEST WISCONSIN...


CITY           SKY/WX    TMP DP  RH WIND       PRES   REMARKS
LA CROSSE      CLOUDY    34  30  85 W12G23    30.11R WCI  25
PRAIRIE DU CHI CLOUDY    34  31  86 W7        30.14R WCI  28
BOSCOBEL       CLOUDY    36  31  82 SW7       30.13R WCI  30
LONE ROCK      CLOUDY    35  33  92 W10       30.11R WCI  27
PLATTEVILLE    CLOUDY    33  33 100 W12       30.14R WCI  24
FORT MC COY    CLOUDY    32  32  99 W8        30.09S WCI  25
CAMP DOUGLAS   CLOUDY    34  34 100 W12       30.07R WCI  25
MAUSTON-NEW LI LGT RAIN  34  32  91 W8G15     30.07R WCI  28
VIROQUA        CLOUDY    32  32 100 W9        30.07S WCI  24
WIS DELLS      CLOUDY    34  33  96 W13G18    30.07R WCI  25
$$

...ELSEWHERE IN WISCONSIN...


CITY           SKY/WX    TMP DP  RH WIND       PRES   REMARKS
MILWAUKEE      DRIZZLE   39  38  96 SW5       30.07R FOG
MADISON        CLOUDY    36  34  92 VRB6G17   30.08R WCI  31
GREEN BAY      CLOUDY    35  33  92 SW5       30.02F FOG     WCI  31
EAU CLAIRE     CLOUDY    29  28  96 W10       30.06R FOG     WCI  20
BLACK RVR FLS  CLOUDY    33  33  98 W5        30.07R WCI  29
MEDFORD        MIX PCPN  30  29  96 SW8       29.99S WCI  22
WAUSAU         CLOUDY    32  31  96 SW8       29.99R WCI  25
WIS RAPIDS     CLOUDY    33  30  88 W9        30.05R WCI  25
MARSHFIELD     CLOUDY    32  31  96 W13       30.01R FOG     WCI  22
RICE LAKE      CLOUDY    28  28  99 SW8       30.05R WCI  20
$$

...NORTHEAST IOWA...


CITY           SKY/WX    TMP DP  RH WIND       PRES   REMARKS
WATERLOO       FAIR      30  24  78 NW16G22   30.18R WCI  19
DUBUQUE        CLOUDY    32  29  88 W18       30.15R WCI  20
DECORAH        FAIR      30  28  93 W9G16     30.12R WCI  22
MASON CITY     SUNNY     25  21  85 W14       30.18R WCI  13
CHARLES CITY   CLOUDY    28  28 100 W14       30.17R WCI  17
OELWEIN        PTSUNNY   30  30 100 MISG      30.16R
$$

...ELSEWHERE IN IOWA...


CITY           SKY/WX    TMP DP  RH WIND       PRES   REMARKS
DES MOINES     MOSUNNY   31  23  72 NW12      30.24R WCI  22
IOWA CITY      CLOUDY    36  31  82 W7        30.23R WCI  30
FORT DODGE     CLOUDY    22  19  89 NW8       30.23R FOG     WCI  12
MARSHALLTOWN   MOSUNNY   29  25  85 W14       30.20R WCI  18
CEDAR RAPIDS   CLOUDY    34  32  92 W14       30.18R WCI  25
$$

...NORTHERN ILLINOIS...


CITY           SKY/WX    TMP DP  RH WIND       PRES   REMARKS
CHICAGO-OHARE  DRIZZLE   43  41  93 SW12      30.09R FOG
CHICAGO-MIDWAY CLOUDY    44  43  96 SW12      30.10R FOG
MOLINE         CLOUDY    36  34  93 W13       30.18R WCI  27
ROCKFORD       CLOUDY    38  35  89 W20G26    30.13R WCI  28
PEORIA         CLOUDY    39  37  92 W15G22    30.21R WCI  31
$$

NOTE: "FAIR" INDICATES FEW OR NO CLOUDS BELOW 12,000 FEET WITH NO
SIGNIFICANT WEATHER AND/OR OBSTRUCTIONS TO VISIBILITY. WIND
SPEEDS ARE IN MILES-PER-HOUR.




USA.gov is the U.S. government's official web portal to all federal, state and local government web resources and services.